FENGYUN 1C DEB, 31987

Orbit data source: Space-Track

FENGYUN 1C DEB, 31987 is space debris in SSO originally from a launch on Mon, 10 May 1999 UTC launched from the Taiyaun Space Center, China (TSC). Fengyun 1C debris stems from the Chinese weather satellite Fengyun-1C, which was intentionally destroyed by a Chinese anti-satellite missile in 2007. This event dramatically increased the amount of space debris, with thousands of trackable fragments posing hazards to satellites and human spaceflight. The Fengyun 1C debris cloud has become a focal point in discussions about space sustainability and the need for international regulations to prevent the creation of new debris.

Loading next visibility...
Identifier
31987, 1999-025CPQ
Orbit
SSO
Country
Flag of CNCN / PRC
Related business
Manufacturer
Unknown
Mission
Spacecraft
Bus & Motor
Unknown
Mass
Unknown
Launch date (UTC)
1999-05-10 (27 years ago)
Launch vehicle
Unknown
Launch site
Taiyaun Space Center, China (TSC)
Object type
Payload
Rocket body
Debris
Shape & HBR
Unknown shape, 0.1 m
Radar Cross Section
Medium (>0.1 m² and <1 m²)

Expand to show TLE details & history
Last TLE update: 22 hours ago

TLE from 22 hours ago
0 FENGYUN 1C DEB
1 31987U 99025CPQ 26207.46512111  .00002579  00000-0  71996-3 0  9999
2 31987  99.0530 200.9916 0049318 205.7024 307.7736 14.46483487996318
Epoch: 2026-07-26T11:09Z
TLE epoch observation values (Epoch: 2026-07-26T11:09:46.463Z)
Latitude
26.64786°
Longitude
-86.05338°
Altitude
719.026 km
Speed
7.51 km/s
True Right ascension
01h 42m 12s
True Declination
26° 30' 34"
Sunlit
Object was in daylight at epoch
Visualization orbit readout
Latitude
Unknown
Longitude
Unknown
Altitude
Unknown
Speed
Unknown
Apparent Right ascension
Unknown
Apparent Declination
Unknown
Sunlit
N/A
Visualization observer readout
Local Sidereal Time
22:26:44
Azimuth
Unknown
Elevation
Unknown
Doppler factor
Unknown
Orbital elements
Apogee altitude
769.374 km
Perigee altitude
699.22 km
Semi-major axis
7,112.434 km
Eccentricity
0.00493
Inclination
99.053°
RAAN
200.9916°
Arg. of periapsis
205.7024°
True anomaly
307.3252°
Mean anomaly
307.7736°
Eccentric anomaly
307.54957°
Mean motion
3.61839 °/min
Orbital period
99.49 mins
BSTAR
0.00071996
Loading maneuver chart data...
Computing Atmospheric mass density...

Documentation

Showing up to 5 results
|